This is the latest recevied weather packets stored in our database for station/object KN6ZYR. If no packets are shown the sender has not sent any weather packets the latest 10 day(s).
| Time | Temp. | Humidity | Pressure | Rain* | Wind** | Luminosity | Snow |
|---|---|---|---|---|---|---|---|
| 1778091297 | 23.33° C | 28% | 1023.6 hPa | 0 mm | - | 748 W/m² | - |
| 1778090994 | 23.33° C | 31% | 1023.6 hPa | 0 mm | - | 739 W/m² | - |
| 1778090690 | 23.33° C | 29% | 1023.8 hPa | 0 mm | - | 731 W/m² | - |
| 1778090387 | 22.22° C | 30% | 1023.8 hPa | 0 mm | - | 723 W/m² | - |
| 1778090084 | 22.78° C | 29% | 1023.8 hPa | 0 mm | - | 713 W/m² | - |
| 1778089780 | 22.22° C | 30% | 1023.9 hPa | 0 mm | - | 703 W/m² | - |
| 1778089478 | 21.67° C | 33% | 1023.9 hPa | 0 mm | - | 693 W/m² | - |
| 1778089174 | 22.22° C | 32% | 1023.8 hPa | 0 mm | - | 681 W/m² | - |
| 1778088872 | 22.22° C | 32% | 1023.8 hPa | 0 mm | - | 671 W/m² | - |
| 1778088569 | 21.67° C | 33% | 1024 hPa | 0 mm | - | 660 W/m² | - |
| 1778088266 | 21.11° C | 33% | 1023.8 hPa | 0 mm | - | 649 W/m² | - |
| 1778087963 | 21.67° C | 32% | 1024 hPa | 0 mm | - | 637 W/m² | - |
| 1778087660 | 21.67° C | 33% | 1023.6 hPa | 0 mm | - | 625 W/m² | - |
| 1778087358 | 21.11° C | 32% | 1024 hPa | 0 mm | - | 612 W/m² | - |
| 1778087054 | 20.56° C | 35% | 1023.8 hPa | 0 mm | - | 600 W/m² | - |
| 1778086753 | 20.56° C | 36% | 1024 hPa | 0 mm | - | 587 W/m² | - |
| 1778086450 | 20° C | 34% | 1023.6 hPa | 0 mm | - | 574 W/m² | - |
| 1778086141 | 20° C | 34% | 1023.9 hPa | 0 mm | - | 561 W/m² | - |
| 1778085837 | 20.56° C | 39% | 1023.9 hPa | 0 mm | - | 548 W/m² | - |
| 1778085536 | 20.56° C | 38% | 1024.1 hPa | 0 mm | - | 534 W/m² | - |
| 1778085229 | 20° C | 42% | 1024.1 hPa | 0 mm | - | 521 W/m² | - |
| 1778084925 | 20° C | 39% | 1023.9 hPa | 0 mm | - | 510 W/m² | - |
| 1778084623 | 20° C | 43% | 1023.8 hPa | 0 mm | - | 493 W/m² | - |
| 1778084320 | 18.33° C | 40% | 1023.8 hPa | 0 mm | - | 479 W/m² | - |
| 1778084018 | 17.78° C | 42% | 1023.9 hPa | 0 mm | - | 468 W/m² | - |
* Rain latest hour (hover to see other rain measurements)
** Current wind speed in m/s (hover to see current wind gust speed)